sat.trackr.live / text

‹ back to catalog

STARLINK-6353

NORAD 57056 · 2023-088J

PAYLOAD ACTIVE UNKNOWN

§ Identity

Operator
Country
US
Launch date
2023-06-22
Launch site
AFWTR
Launch vehicle
Mass (kg)
RCS (m²)

Purposes: comms

External: N2YO · Heavens-Above · Gunter

§ Orbital elements

Epoch: 2026-05-24T23:31:04.719072Z

Period
94.27 min
Inclination
43.0056°
Eccentricity
0.0001329
Mean motion
15.27572105 rev/d
Perigee alt
482.2 km
Apogee alt
484.0 km
Semi-major
6,861.2 km
B*
6.4623e-5
RAAN
39.5036°
Arg perigee
249.2012°
Mean anomaly
110.8697°
Rev number
16,200

§ Raw data

STARLINK-63531 57056U 23088J   26144.97991573  .00001516  00000+0  64623-4 0  99982 57056  43.0056  39.5036 0001329 249.2012 110.8697 15.27572105162000

JSON: /api/v1/satellites/57056 · /tle

For live sub-satellite position, see the globe view (requires WebGL).

§ Visibility from observer

Set your observer location to see the next 7 days of passes ≥ 10°. The values pass through the URL so the page stays shareable.

No JS? Fill the form by hand. The geolocation button needs JavaScript.